Погода в Ниагара-Фолс

Канада     43°05′24″N   79°05′01″W
темп.,
°C
ветер,
м/с
пор.,
м/с
влажн.,
%
обл.,
%
осадки,
мм/ч
давл.,
гПа
погр.,
м
12 мая, ср
ср1223:00+4сз498691 0.0 1024669
02:00+4з398799 0.0 1024428
05:00+3з38916 0.0 1024272
08:00+6сз37735 0.0 1027399
11:00+12ссз46450 0.0 1027965
14:00+15ссз57290 0.0 10261766
17:00+15сз47331 0.0 10252134
20:00+10зсз26542 0.0 1026255
13 мая, чт
чт1323:00+8зсз25695 0.0 1027126
02:00+6зюз226510 0.0 102733
05:00+5юз23685 0.0 102870
08:00+8зюз23581 0.0 1029185
11:00+14зюз23492 0.0 1028824
14:00+16з244523 0.0 10271551
17:00+16юз445012 0.0 10251204
20:00+12юз36716 0.1 1026181
14 мая, пт
пт1423:00+9юз22815 0.0 102655
02:00+8ююз11830 0.0 102613
05:00+7юз11843 0.0 102725
08:00+10юз22660 0.0 1028200
11:00+15зюз23440 0.0 1027831
14:00+17юз33395 0.0 10261492
17:00+17юз43435 0.0 1025880
20:00+12юз37605 0.0 1025208
15 мая, сб
сб1523:00+10ююз36755 0.0 1026160
02:00+9ююз23845 0.0 102670
05:00+8ююз11874 0.0 102615
08:00+11ююз23725 0.0 1027187
11:00+16юз34504 0.0 1027809
14:00+19зюз344233 0.0 10251928
17:00+18юз33475 0.0 10241118
20:00+14з117048 0.3 102536
16 мая, вс
вс1623:00+12ююз237115 0.0 102570
02:00+10ююз237138 0.0 102674
05:00+8ю22715 0.0 102625
08:00+11юв11835 0.0 1025120
11:00+18ссв11510 0.0 1024996
14:00+19с324529 0.3 10232015
17:00+19св334444 0.1 10211557
20:00+15св11616 0.1 102231